Weather History for Sarasota, FL

Change the Weather History Date:

Monday, December 27, 2004

  Actual Average Record
Temperature  
Mean Temperature 50 °F 62 °F  
Max Temperature 64 °F 72 °F 86 °F (1988)
Min Temperature 37 °F 52 °F 24 °F (1983)
Degree Days  
Heating Degree Days 14 5  
Month to date heating degree days 100  
Since 1 July heating degree days 133  
Cooling Degree Days 0 2  
Month to date cooling degree days 68  
Year to date cooling degree days 3368  
Moisture  
Dew Point 33 °F    
Average Humidity 52    
Maximum Humidity 73    
Minimum Humidity 32    
Precipitation  
Precipitation 0.06 in 0.09 in 2.90 in (1997)
Month to date precipitation 2.27  
Year to date precipitation 52.75  
Sea Level Pressure  
Sea Level Pressure 30.37 in    
Wind  
Wind Speed 8 mph (NNE)    
Max Wind Speed 13 mph    
Max Gust Speed -    
Visibility 9 miles    
Events      
T = Trace of Precipitation, MM = Missing Value Source: NWS Daily Summary

Daily Weather History Graph

Daily Weather History Graph

Search for Another Location

Airport:

Trip Planner

Search our weather history database for the weather conditions in past years. The results will help you decide how hot, cold, wet, or windy it might be!

Date:

Astronomy

Dec. 27, 2004 Rise Set
Actual Time 7:18 AM EST 5:44 PM EST
Civil Twilight 6:53 AM EST 6:09 PM EST
Nautical Twilight 6:24 AM EST 6:39 PM EST
Astronomical Twilight 5:55 AM EST 7:07 PM EST
Moon 6:38 PM EST (12/27) 8:19 AM EST (12/27)
Length of Visible Light 11h 16m
Length of Day
10h 25m
Full, 99% of the Moon is Illuminated
Dec 27
Full
Jan 3
Last Quarter
Jan 10
New
Jan 17
First Quarter
Jan 25
Full

Hourly Weather History & Observations

Time (EST) Temp. Windchill Dew Point Humidity Pressure Visibility Wind Dir Wind Speed Gust Speed Precip Events Conditions
12:53 AM 44.1 °F 39.5 °F 32.0 °F 63% 30.29 in 10.0 mi NNE 8.1 mph - 0.02 in   Clear
1:53 AM 42.1 °F 39.2 °F 30.9 °F 65% 30.30 in 10.0 mi NE 4.6 mph - 0.01 in   Clear
2:53 AM 39.9 °F 36.7 °F 32.0 °F 73% 30.31 in 10.0 mi NE 4.6 mph - N/A   Clear
3:53 AM 37.9 °F 33.5 °F 30.0 °F 73% 30.31 in 10.0 mi ENE 5.8 mph - N/A   Clear
4:53 AM 39.0 °F 34.8 °F 30.0 °F 70% 30.32 in 10.0 mi NE 5.8 mph - N/A   Clear
5:53 AM 39.0 °F 34.0 °F 28.9 °F 67% 30.34 in 10.0 mi NE 6.9 mph - N/A   Clear
6:53 AM 39.0 °F 34.8 °F 28.9 °F 67% 30.36 in 10.0 mi NNE 5.8 mph - N/A   Clear
7:53 AM 39.9 °F 35.8 °F 30.0 °F 68% 30.38 in 10.0 mi NNE 5.8 mph - N/A   Clear
8:53 AM 48.0 °F - 30.0 °F 50% 30.40 in 10.0 mi North 9.2 mph - N/A   Clear
9:53 AM 53.1 °F - 28.9 °F 40% 30.41 in 10.0 mi NNE 10.4 mph - 0.03 in   Clear
10:05 AM 55.4 °F - 30.2 °F 38% 30.41 in 0.2 mi NNE 12.7 mph - N/A   Haze
10:12 AM 53.6 °F - 28.4 °F 38% 30.41 in 4.0 mi NNE 11.5 mph - N/A   Haze
10:53 AM 57.0 °F - 28.0 °F 33% 30.40 in - North 11.5 mph - N/A   Clear
11:53 AM 61.0 °F - 30.9 °F 32% 30.39 in 10.0 mi North 11.5 mph - N/A   Clear
12:53 PM 62.1 °F - 33.1 °F 34% 30.36 in 10.0 mi North 12.7 mph - N/A   Clear
1:53 PM 64.0 °F - 35.1 °F 34% 30.34 in 10.0 mi North 9.2 mph - N/A   Clear
2:53 PM 64.9 °F - 36.0 °F 34% 30.33 in 10.0 mi NNE 10.4 mph - N/A   Clear
3:53 PM 64.9 °F - 36.0 °F 34% 30.32 in 10.0 mi NNE 9.2 mph - N/A   Clear
4:53 PM 64.0 °F - 36.0 °F 35% 30.34 in 10.0 mi North 9.2 mph - N/A   Clear
5:53 PM 59.0 °F - 37.0 °F 44% 30.36 in 10.0 mi NNE 3.5 mph - N/A   Clear
6:53 PM 55.9 °F - 39.0 °F 53% 30.39 in 10.0 mi NNE 3.5 mph - N/A   Clear
7:53 PM 53.1 °F - 41.0 °F 64% 30.40 in 10.0 mi NE 5.8 mph - N/A   Clear
8:53 PM 53.1 °F - 37.0 °F 55% 30.43 in 10.0 mi NNE 6.9 mph - N/A   Clear
9:53 PM 51.1 °F - 36.0 °F 56% 30.44 in 10.0 mi NNE 8.1 mph - N/A   Clear
10:53 PM 51.1 °F - 39.0 °F 63% 30.45 in 10.0 mi NNE 9.2 mph - N/A   Clear
11:53 PM 50.0 °F - 41.0 °F 71% 30.44 in 10.0 mi NE 9.2 mph - N/A   Clear